• In Germany
  • List of Countries
  • For 7 days
  • Water Temperature
  • Satellite Maps
  • Weather Map
  • Weather Widgets
  • user-avatar
    Login

    Hourly Weather Kyrdzhali

    Today, 22 November, Wednesday

    Time Temperature Precipitation Wind Pressure Humidity
    00:00 +4°C° 0 mm 2 mps 728 mmHg 63%
    01:00 +4°C° 0 mm 2 mps 728 mmHg 63%
    02:00 +4°C° 0 mm 2 mps 728 mmHg 64%
    03:00 +4°C° 0 mm 2 mps 728 mmHg 64%
    04:00 +4°C° 0 mm 2 mps 728 mmHg 63%
    05:00 +4°C° 0 mm 2 mps 728 mmHg 63%
    06:00 +4°C° 0 mm 2 mps 728 mmHg 63%
    07:00 +4°C° 0 mm 2 mps 728 mmHg 62%
    08:00 +4°C° 0 mm 2 mps 728 mmHg 62%
    09:00 +6°C° 0 mm 2 mps 728 mmHg 56%
    10:00 +9°C° 0 mm 2 mps 728 mmHg 51%
    11:00 +12°C° 0 mm 2 mps 729 mmHg 46%
    12:00 +12°C° 0 mm 2 mps 728 mmHg 45%
    13:00 +13°C° 0 mm 2 mps 728 mmHg 44%
    14:00 +14°C° 0 mm 2 mps 728 mmHg 44%
    15:00 +12°C° 0 mm 2 mps 728 mmHg 49%
    16:00 +10°C° 0 mm 2 mps 728 mmHg 54%
    17:00 +10°C° 0 mm 1 mps 727 mmHg 60%
    18:00 +8°C° 0 mm 2 mps 728 mmHg 62%
    19:00 +8°C° 0 mm 2 mps 728 mmHg 63%
    20:00 +7°C° 0 mm 2 mps 728 mmHg 65%
    21:00 +7°C° 0 mm 2 mps 728 mmHg 65%
    22:00 +7°C° 0 mm 2 mps 728 mmHg 65%
    23:00 +7°C° 0 mm 2 mps 728 mmHg 64%

    Tomorrow, 23 November, Thursday

    Time Temperature Precipitation Wind Pressure Humidity
    00:00 +7°C° 0 mm 2 mps 728 mmHg 64%
    01:00 +7°C° 0 mm 2 mps 728 mmHg 63%
    02:00 +8°C° 0 mm 1 mps 728 mmHg 62%
    03:00 +8°C° 0 mm 1 mps 728 mmHg 62%
    04:00 +8°C° 0 mm 1 mps 728 mmHg 61%
    05:00 +8°C° 0 mm 1 mps 728 mmHg 61%
    06:00 +8°C° 0 mm 1 mps 729 mmHg 61%
    07:00 +8°C° 0 mm 1 mps 729 mmHg 60%
    08:00 +8°C° 0 mm 1 mps 729 mmHg 60%
    09:00 +10°C° 0 mm 1 mps 730 mmHg 55%
    10:00 +12°C° 0 mm 1 mps 730 mmHg 49%
    11:00 +13°C° 0 mm 0 mps 730 mmHg 44%
    12:00 +14°C° 0 mm 1 mps 730 mmHg 43%
    13:00 +15°C° 0 mm 1 mps 730 mmHg 43%
    14:00 +15°C° 0 mm 1 mps 730 mmHg 42%
    15:00 +14°C° 0 mm 1 mps 730 mmHg 48%
    16:00 +13°C° 0 mm 1 mps 730 mmHg 54%
    17:00 +11°C° 0 mm 1 mps 730 mmHg 60%
    18:00 +11°C° 0 mm 1 mps 730 mmHg 62%
    19:00 +10°C° 0 mm 1 mps 730 mmHg 65%
    20:00 +10°C° 0 mm 1 mps 731 mmHg 67%
    21:00 +9°C° 0 mm 1 mps 731 mmHg 68%
    22:00 +9°C° 0 mm 1 mps 731 mmHg 68%
    23:00 +9°C° 0 mm 1 mps 731 mmHg 69%

    Day after tomorrow, 24 November, Friday

    Time Temperature Precipitation Wind Pressure Humidity
    00:00 +9°C° 0 mm 1 mps 731 mmHg 70%
    01:00 +8°C° 0 mm 1 mps 731 mmHg 70%
    02:00 +8°C° 0 mm 1 mps 731 mmHg 70%
    03:00 +8°C° 0 mm 1 mps 731 mmHg 71%
    04:00 +8°C° 0 mm 1 mps 731 mmHg 71%
    05:00 +8°C° 0 mm 1 mps 731 mmHg 71%
    06:00 +8°C° 0 mm 1 mps 731 mmHg 71%
    07:00 +8°C° 0 mm 1 mps 731 mmHg 71%
    08:00 +8°C° 0 mm 1 mps 731 mmHg 70%
    09:00 +10°C° 0 mm 1 mps 731 mmHg 64%
    10:00 +10°C° 0 mm 0 mps 732 mmHg 58%
    11:00 +12°C° 0 mm 0 mps 732 mmHg 53%
    12:00 +14°C° 0 mm 1 mps 732 mmHg 51%
    13:00 +14°C° 0 mm 1 mps 731 mmHg 50%
    14:00 +15°C° 0 mm 1 mps 731 mmHg 49%
    15:00 +14°C° 0 mm 1 mps 731 mmHg 55%
    16:00 +12°C° 0 mm 1 mps 731 mmHg 62%
    17:00 +11°C° 0 mm 1 mps 731 mmHg 68%
    18:00 +10°C° 0 mm 1 mps 731 mmHg 71%
    19:00 +10°C° 0 mm 1 mps 731 mmHg 74%
    20:00 +9°C° 0 mm 1 mps 732 mmHg 77%
    21:00 +9°C° 0 mm 1 mps 732 mmHg 78%
    22:00 +9°C° 0 mm 1 mps 732 mmHg 80%
    23:00 +8°C° 0 mm 1 mps 732 mmHg 81%

    25 November, Saturday

    Time Temperature Precipitation Wind Pressure Humidity
    00:00 +8°C° 0 mm 1 mps 732 mmHg 82%
    01:00 +8°C° 0 mm 1 mps 732 mmHg 83%
    02:00 +8°C° 0 mm 1 mps 732 mmHg 84%
    03:00 +7°C° 0 mm 1 mps 732 mmHg 85%
    04:00 +7°C° 0 mm 1 mps 732 mmHg 86%
    05:00 +7°C° 0 mm 1 mps 732 mmHg 87%
    06:00 +7°C° 0 mm 1 mps 732 mmHg 88%
    07:00 +7°C° 0 mm 1 mps 732 mmHg 88%
    08:00 +7°C° 0 mm 1 mps 732 mmHg 88%
    09:00 +8°C° 0 mm 1 mps 733 mmHg 81%
    10:00 +10°C° 0 mm 1 mps 733 mmHg 74%
    11:00 +12°C° 0 mm 2 mps 733 mmHg 67%
    12:00 +12°C° 0 mm 2 mps 732 mmHg 64%
    13:00 +13°C° 0 mm 2 mps 732 mmHg 60%
    14:00 +13°C° 0 mm 2 mps 731 mmHg 57%
    15:00 +12°C° 0 mm 2 mps 731 mmHg 62%
    16:00 +11°C° 0 mm 1 mps 731 mmHg 67%
    17:00 +10°C° 0 mm 1 mps 731 mmHg 73%
    18:00 +9°C° 0 mm 1 mps 731 mmHg 75%
    19:00 +9°C° 0 mm 1 mps 731 mmHg 78%
    20:00 +8°C° 0 mm 1 mps 731 mmHg 81%
    21:00 +8°C° 0 mm 1 mps 731 mmHg 82%
    22:00 +8°C° 0 mm 1 mps 731 mmHg 83%
    23:00 +7°C° 0 mm 1 mps 731 mmHg 85%

    26 November, Sunday

    Time Temperature Precipitation Wind Pressure Humidity
    00:00 +7°C° 0 mm 1 mps 731 mmHg 84%
    01:00 +7°C° 0 mm 1 mps 731 mmHg 84%
    02:00 +7°C° 0 mm 1 mps 731 mmHg 84%
    03:00 +6°C° 0 mm 1 mps 730 mmHg 83%
    04:00 +6°C° 0 mm 1 mps 730 mmHg 83%
    05:00 +5°C° 0 mm 0 mps 730 mmHg 82%
    06:00 +6°C° 0 mm 1 mps 730 mmHg 81%
    07:00 +6°C° 0 mm 1 mps 730 mmHg 80%
    08:00 +6°C° 0 mm 1 mps 730 mmHg 79%
    09:00 +8°C° 0 mm 1 mps 730 mmHg 73%
    10:00 +10°C° 0 mm 1 mps 730 mmHg 67%
    11:00 +12°C° 0 mm 1 mps 731 mmHg 60%
    12:00 +12°C° 0 mm 1 mps 730 mmHg 59%
    13:00 +13°C° 0 mm 2 mps 730 mmHg 58%
    14:00 +14°C° 0 mm 2 mps 729 mmHg 57%
    15:00 +12°C° 0 mm 2 mps 729 mmHg 64%
    16:00 +10°C° 0 mm 2 mps 729 mmHg 71%
    17:00 +9°C° 0 mm 2 mps 729 mmHg 78%
    18:00 +8°C° 0 mm 2 mps 729 mmHg 81%
    19:00 +8°C° 0 mm 2 mps 729 mmHg 84%
    20:00 +8°C° 0 mm 2 mps 729 mmHg 88%
    21:00 +7°C° 0 mm 2 mps 729 mmHg 88%
    22:00 +7°C° 0 mm 2 mps 729 mmHg 88%
    23:00 +7°C° 0 mm 2 mps 728 mmHg 89%

    27 November, Monday

    Time Temperature Precipitation Wind Pressure Humidity
    00:00 +7°C° 0 mm 2 mps 728 mmHg 89%
    01:00 +7°C° 0 mm 2 mps 728 mmHg 89%
    02:00 +7°C° 0 mm 2 mps 727 mmHg 88%
    03:00 +7°C° 0 mm 2 mps 727 mmHg 88%
    04:00 +7°C° 0 mm 2 mps 726 mmHg 88%
    05:00 +7°C° 0 mm 2 mps 726 mmHg 88%
    06:00 +7°C° 0 mm 2 mps 726 mmHg 88%
    07:00 +7°C° 0 mm 2 mps 726 mmHg 88%
    08:00 +8°C° 0 mm 2 mps 726 mmHg 88%
    09:00 +9°C° 0.1 mm 2 mps 726 mmHg 85%
    10:00 +10°C° 0.1 mm 3 mps 726 mmHg 81%
    11:00 +11°C° 0.1 mm 3 mps 726 mmHg 78%
    12:00 +11°C° 0.6 mm 3 mps 725 mmHg 80%
    13:00 +11°C° 0.6 mm 3 mps 725 mmHg 81%
    14:00 +11°C° 0.6 mm 3 mps 725 mmHg 83%
    15:00 +10°C° 1.2 mm 3 mps 725 mmHg 85%
    16:00 +9°C° 1.2 mm 3 mps 725 mmHg 87%
    17:00 +8°C° 1.2 mm 3 mps 724 mmHg 89%
    18:00 +8°C° 0.4 mm 3 mps 725 mmHg 88%
    19:00 +7°C° 0.4 mm 3 mps 725 mmHg 86%
    20:00 +7°C° 0.4 mm 3 mps 725 mmHg 84%
    21:00 +7°C° 0 mm 3 mps 726 mmHg 83%
    22:00 +5°C° 0 mm 3 mps 726 mmHg 82%
    23:00 +5°C° 0 mm 3 mps 726 mmHg 81%
    Show more